TimeCDT,TemperatureF,Dew PointF,Humidity,Sea Level PressureIn,VisibilityMPH,Wind Direction,Wind SpeedMPH,Gust SpeedMPH,PrecipitationIn,Events,Conditions,WindDirDegrees,DateUTC
12:15 AM,88.9,64.9,45,29.87,10.0,ESE,4.6,-,N/A,,Scattered Clouds,120,2013-09-02 05:15:00
12:35 AM,88.3,65.5,47,29.91,10.0,North,11.5,-,N/A,Thunderstorm,Thunderstorm,350,2013-09-02 05:35:00
12:55 AM,83.5,70.7,65,29.96,5.0,North,17.3,26.5,0.09,Rain-Thunderstorm,Heavy Thunderstorms and Rain,350,2013-09-02 05:55:00
1:15 AM,77.7,72.5,84,29.92,2.0,SSE,6.9,-,0.08,Rain-Thunderstorm,Light Thunderstorms and Rain,160,2013-09-02 06:15:00
1:35 AM,77.7,71.2,80,29.90,10.0,SSE,13.8,-,0.08,Rain-Thunderstorm,Light Thunderstorms and Rain,160,2013-09-02 06:35:00
1:55 AM,77.5,68.9,75,29.87,10.0,South,13.8,19.6,0.08,Thunderstorm,Thunderstorm,180,2013-09-02 06:55:00
2:15 AM,78.4,70.2,76,29.88,10.0,SW,10.4,-,N/A,Thunderstorm,Unknown,220,2013-09-02 07:15:00
2:35 AM,79.7,69.8,72,29.88,10.0,SW,8.1,-,N/A,,Clear,220,2013-09-02 07:35:00
2:55 AM,79.0,70.3,75,29.88,10.0,WSW,3.5,-,N/A,,Clear,240,2013-09-02 07:55:00
3:15 AM,78.4,70.7,77,29.90,10.0,Calm,Calm,-,N/A,,Scattered Clouds,0,2013-09-02 08:15:00
3:35 AM,79.5,70.0,72,29.89,10.0,SSE,4.6,-,N/A,,Mostly Cloudy,150,2013-09-02 08:35:00
3:55 AM,78.8,69.8,74,29.89,10.0,South,6.9,-,N/A,Thunderstorm,Scattered Clouds,190,2013-09-02 08:55:00
4:15 AM,78.8,68.2,70,29.89,10.0,Calm,Calm,-,N/A,Thunderstorm,Mostly Cloudy,0,2013-09-02 09:15:00
4:35 AM,79.0,69.1,72,29.93,10.0,NE,10.4,-,N/A,,Overcast,50,2013-09-02 09:35:00
4:55 AM,78.4,70.2,76,29.96,7.0,North,8.1,-,0.04,Rain-Thunderstorm,Heavy Thunderstorms and Rain,10,2013-09-02 09:55:00
5:15 AM,74.7,69.6,84,29.95,4.0,WNW,4.6,-,0.12,Rain-Thunderstorm,Heavy Thunderstorms and Rain,300,2013-09-02 10:15:00
5:35 AM,73.9,70.0,87,29.96,7.0,NW,8.1,-,0.15,Rain-Thunderstorm,Light Thunderstorms and Rain,310,2013-09-02 10:35:00
5:55 AM,73.6,69.1,86,29.97,10.0,NW,5.8,-,0.15,Rain,Light Rain,320,2013-09-02 10:55:00
6:15 AM,73.4,68.9,86,29.95,10.0,SW,6.9,-,0.02,Rain,Light Rain,220,2013-09-02 11:15:00
6:35 AM,73.4,68.9,86,29.94,10.0,SW,9.2,-,0.04,Rain-Thunderstorm,Thunderstorms and Rain,220,2013-09-02 11:35:00
6:55 AM,73.8,68.9,85,29.95,10.0,West,9.2,-,0.06,Rain-Thunderstorm,Rain,260,2013-09-02 11:55:00
7:15 AM,73.8,69.1,85,29.97,10.0,WNW,4.6,-,0.01,Rain-Thunderstorm,Light Thunderstorms and Rain,290,2013-09-02 12:15:00
7:35 AM,73.4,69.1,86,30.00,10.0,NW,13.8,20.7,0.03,Rain-Thunderstorm,Thunderstorms and Rain,320,2013-09-02 12:35:00
7:55 AM,73.0,69.1,87,29.98,10.0,West,5.8,-,0.05,Rain-Thunderstorm,Light Thunderstorms and Rain,280,2013-09-02 12:55:00
8:15 AM,72.9,69.3,88,29.97,7.0,Calm,Calm,-,0.01,Rain,Rain,0,2013-09-02 13:15:00
8:35 AM,73.4,69.8,88,29.97,10.0,Calm,Calm,-,0.02,Rain-Thunderstorm,Light Thunderstorms and Rain,0,2013-09-02 13:35:00
8:55 AM,73.4,69.8,88,29.97,10.0,Calm,Calm,-,0.04,Rain-Thunderstorm,Rain,0,2013-09-02 13:55:00
9:15 AM,74.3,69.8,86,29.98,10.0,South,3.5,-,0.01,Rain-Thunderstorm,Light Thunderstorms and Rain,170,2013-09-02 14:15:00
9:35 AM,74.8,70.7,87,30.01,10.0,NNE,6.9,-,0.01,Thunderstorm,Scattered Clouds,30,2013-09-02 14:35:00
9:55 AM,74.8,70.7,87,30.02,10.0,NNE,3.5,-,0.01,Thunderstorm,Clear,30,2013-09-02 14:55:00
10:15 AM,74.7,70.2,86,30.04,10.0,Calm,Calm,-,N/A,,Clear,0,2013-09-02 15:15:00
10:35 AM,74.7,70.0,85,30.04,10.0,Calm,Calm,-,N/A,Rain,Light Rain,0,2013-09-02 15:35:00
10:55 AM,74.7,70.2,86,30.05,10.0,Calm,Calm,-,0.01,Rain,Light Rain,0,2013-09-02 15:55:00
11:15 AM,74.5,70.5,87,30.04,10.0,Calm,Calm,-,0.01,Rain,Light Rain,0,2013-09-02 16:15:00
11:35 AM,74.8,70.9,87,30.05,10.0,Calm,Calm,-,0.02,Rain,Light Rain,0,2013-09-02 16:35:00
11:55 AM,75.4,71.1,86,30.05,10.0,WNW,3.5,-,0.02,,Scattered Clouds,300,2013-09-02 16:55:00
12:15 PM,75.6,71.1,86,30.05,10.0,NW,5.8,-,N/A,,Clear,310,2013-09-02 17:15:00
12:35 PM,76.3,71.4,85,30.04,10.0,NNW,3.5,-,N/A,,Clear,340,2013-09-02 17:35:00
12:55 PM,76.5,71.6,85,30.04,10.0,WNW,4.6,-,N/A,,Clear,300,2013-09-02 17:55:00
1:15 PM,77.0,72.1,85,30.02,10.0,NW,3.5,-,N/A,,Clear,320,2013-09-02 18:15:00
1:35 PM,77.7,72.0,82,30.02,10.0,Calm,Calm,-,N/A,,Clear,0,2013-09-02 18:35:00
1:55 PM,79.3,72.5,79,30.00,10.0,Calm,Calm,-,N/A,,Clear,0,2013-09-02 18:55:00
2:15 PM,80.6,72.9,77,30.00,10.0,Calm,Calm,-,N/A,,Clear,0,2013-09-02 19:15:00
2:35 PM,81.7,72.9,74,29.99,10.0,Calm,Calm,-,N/A,,Clear,0,2013-09-02 19:35:00
2:55 PM,83.5,73.0,71,29.99,10.0,NNW,4.6,-,N/A,,Clear,330,2013-09-02 19:55:00
3:15 PM,85.1,72.7,66,29.98,10.0,Calm,Calm,-,N/A,,Clear,0,2013-09-02 20:15:00
3:35 PM,85.6,72.5,65,29.97,10.0,Calm,Calm,-,N/A,,Clear,0,2013-09-02 20:35:00
3:55 PM,86.7,72.1,62,29.96,10.0,Calm,Calm,-,N/A,,Clear,0,2013-09-02 20:55:00
4:15 PM,88.0,71.2,57,29.95,10.0,Calm,Calm,-,N/A,,Clear,0,2013-09-02 21:15:00
4:35 PM,88.5,72.1,58,29.95,10.0,Calm,Calm,-,N/A,,Clear,0,2013-09-02 21:35:00
4:55 PM,88.7,70.7,55,29.93,10.0,Calm,Calm,-,N/A,,Clear,0,2013-09-02 21:55:00
5:15 PM,89.1,70.0,53,29.93,10.0,Calm,Calm,-,N/A,,Clear,0,2013-09-02 22:15:00
5:35 PM,90.1,69.4,50,29.92,10.0,Calm,Calm,-,N/A,,Clear,0,2013-09-02 22:35:00
5:55 PM,90.0,68.5,49,29.92,10.0,Calm,Calm,-,N/A,,Clear,0,2013-09-02 22:55:00
6:15 PM,90.0,68.9,50,29.91,10.0,Calm,Calm,-,N/A,,Clear,0,2013-09-02 23:15:00
6:35 PM,89.6,68.4,49,29.91,10.0,Calm,Calm,-,N/A,,Clear,0,2013-09-02 23:35:00
6:55 PM,89.6,68.5,50,29.90,10.0,Calm,Calm,-,N/A,,Clear,0,2013-09-02 23:55:00
7:15 PM,89.6,67.5,48,29.90,10.0,Calm,Calm,-,N/A,,Clear,0,2013-09-03 00:15:00
7:35 PM,89.1,67.8,49,29.90,10.0,Calm,Calm,-,N/A,,Clear,0,2013-09-03 00:35:00
7:55 PM,87.8,69.4,54,29.90,10.0,Calm,Calm,-,N/A,,Clear,0,2013-09-03 00:55:00
8:15 PM,86.7,69.8,57,29.91,10.0,Calm,Calm,-,N/A,,Clear,0,2013-09-03 01:15:00
8:35 PM,85.1,71.1,63,29.92,10.0,Calm,Calm,-,N/A,,Clear,0,2013-09-03 01:35:00
8:55 PM,83.3,71.6,68,29.92,10.0,Calm,Calm,-,N/A,,Clear,0,2013-09-03 01:55:00
9:15 PM,83.7,71.6,67,29.93,10.0,Calm,Calm,-,N/A,,Clear,0,2013-09-03 02:15:00
9:35 PM,82.0,71.6,71,29.93,10.0,Calm,Calm,-,N/A,,Clear,0,2013-09-03 02:35:00
9:55 PM,82.4,71.8,70,29.94,10.0,Calm,Calm,-,N/A,,Clear,0,2013-09-03 02:55:00
10:15 PM,82.0,71.6,71,29.95,10.0,Calm,Calm,-,N/A,,Clear,0,2013-09-03 03:15:00
10:35 PM,81.7,71.4,71,29.94,10.0,Calm,Calm,-,N/A,,Clear,0,2013-09-03 03:35:00
10:55 PM,80.6,73.0,78,29.94,10.0,Calm,Calm,-,N/A,,Clear,0,2013-09-03 03:55:00
11:15 PM,79.2,73.4,82,29.95,10.0,Calm,Calm,-,N/A,,Clear,0,2013-09-03 04:15:00
11:35 PM,78.3,73.4,85,29.95,10.0,Calm,Calm,-,N/A,,Clear,0,2013-09-03 04:35:00
11:55 PM,78.3,73.4,85,29.96,10.0,Calm,Calm,-,N/A,,Clear,0,2013-09-03 04:55:00